Find Orbcomm A3

NORAD ID: 25119 Int'l Des: 1997-084 Owner: ORBC Country: US Constellation: orbcomm operational
LEOCIRCULAR

現在のビュー

3D地球を読み込み中...

About Orbcomm A3

Orbcomm A3 (NORAD 25119) is a orbcomm constellation satellite launched Dec 23, 1997 by ORBC of US. It operates in LEO, CIRCULAR orbit with a mass of 42.00 kg.

Orbcomm A3について

説明を読み込み中...

次回通過

Passes for default location (London). Set your location on the main map for personalized predictions.

高度履歴

Loading altitude history...

軌道要素

1 25119U 97084H 26195.54007754 .00000436 00000-0 15652-3 0 9996
2 25119 45.0135 281.7604 0000460 12.8671 347.2193 14.47634015498343
Epoch: Jul 14, 2026 • Age: 6 hours

現在のステータス

高度 744.1 km
遠地点 / 近地点 N/A
速度 7.48 km/s
衛星直下点 -36.27°S, 11.07°E
打ち上げ日 Dec 23, 1997
運用期間 28.5 years
タイプ other

技術仕様

分類 Payload
質量 42.00 kg
乾燥質量 42.00 kg
総質量 42.00 kg
長さ 0.20 m
直径 1.00 m
スパン 4.30 m
形状 Cyl + 2 Pan + Ant
製造者 OSCG
バスタイプ Microstar
フェーズステータス Unknown Transfer Status
所有者/国 ORBC/US

Most Searched